Location: Zlin
(49.2330°N, 17.6670°E)
Time: 23:47:22
(UTC+02:00)

ISS - Visible Passes

Search period start: 18 October 2019 00:00
Search period end: 27 October 2019 23:00
Orbit: 411 x 421 km, 51.6° (Epoch: 19 October)

Date Brightness Start Highest point End Pass type
(mag) Time Alt. Az. Time Alt. Az. Time Alt. Az.
24 Oct -1.3 06:50:16 10° SSW 06:52:59 23° SE 06:55:44 10° E visible
25 Oct -0.9 06:02:32 10° S 06:04:35 15° SE 06:06:39 10° E visible
26 Oct -2.8 06:49:03 10° SW 06:52:18 47° SSE 06:55:33 10° ENE visible
27 Oct -2.1 05:00:52 11° SSW 05:03:47 32° SSE 05:06:50 10° E visible
